Time,TemperatureF,DewpointF,PressureIn,WindDirection,WindDirectionDegrees,WindSpeedMPH,WindSpeedGustMPH,Humidity,HourlyPrecipIn,Conditions,Clouds,dailyrainin,SolarRadiationWatts/m^2,SoftwareType,DateUTC
2013-02-20 00:00:00,26.0,26.0,-100.00,North,11,0.0,1.0,98,-99.99,,,0.00,-0.200000,,2013-02-20 08:00:00,
2013-02-20 00:52:00,26.0,26.0,-100.00,North,11,0.0,1.0,98,-99.99,,,0.00,-0.200000,,2013-02-20 08:52:00,
2013-02-20 01:00:00,24.0,24.0,-100.00,NNE,18,0.0,1.0,100,-99.99,,,0.00,-0.200000,,2013-02-20 09:00:00,
2013-02-20 01:52:00,24.0,24.0,-100.00,NNE,18,0.0,1.0,100,-99.99,,,0.00,-0.200000,,2013-02-20 09:52:00,
2013-02-20 02:00:00,24.0,24.0,-100.00,NE,47,0.0,2.0,99,-99.99,,,0.00,-0.200000,,2013-02-20 10:00:00,
2013-02-20 03:00:00,25.0,24.0,-100.00,NNE,21,1.0,3.0,97,-99.99,,,0.00,-0.200000,,2013-02-20 11:00:00,
2013-02-20 03:52:00,25.0,24.0,-100.00,NNE,21,1.0,3.0,97,-99.99,,,0.00,-0.200000,,2013-02-20 11:52:00,
2013-02-20 04:00:00,24.0,23.0,-100.00,NE,43,0.0,1.0,96,-99.99,,,0.00,-0.200000,,2013-02-20 12:00:00,
2013-02-20 06:00:00,26.0,25.0,-100.00,NNE,22,0.0,0.0,97,-99.99,,,0.00,-0.200000,,2013-02-20 14:00:00,
2013-02-20 06:52:00,26.0,25.0,-100.00,NNE,22,0.0,0.0,97,-99.99,,,0.00,-0.200000,,2013-02-20 14:52:00,
2013-02-20 07:00:00,26.0,26.0,-100.00,North,11,0.0,1.0,97,-99.99,,,0.00,0.200000,,2013-02-20 15:00:00,
2013-02-20 08:00:00,27.0,26.0,-100.00,East,81,0.0,1.0,97,-99.99,,,0.00,16.000000,,2013-02-20 16:00:00,
2013-02-20 08:52:00,27.0,26.0,-100.00,East,81,0.0,1.0,97,-99.99,,,0.00,16.000000,,2013-02-20 16:52:00,
2013-02-20 09:00:00,28.0,27.0,-100.00,North,10,0.0,1.0,98,-99.99,,,0.00,58.700001,,2013-02-20 17:00:00,
2013-02-20 09:52:00,28.0,27.0,-100.00,North,10,0.0,1.0,98,-99.99,,,0.00,58.700001,,2013-02-20 17:52:00,
2013-02-20 10:00:00,28.0,27.0,-100.00,SSE,161,0.0,2.0,96,-99.99,,,0.00,78.500000,,2013-02-20 18:00:00,
2013-02-20 10:52:00,28.0,27.0,-100.00,SSE,161,0.0,2.0,96,-99.99,,,0.00,78.500000,,2013-02-20 18:52:00,
2013-02-20 11:00:00,29.0,28.0,-100.00,NNW,339,1.0,2.0,95,-99.99,,,0.00,115.400002,,2013-02-20 19:00:00,
2013-02-20 11:52:00,29.0,28.0,-100.00,NNW,339,1.0,2.0,95,-99.99,,,0.00,115.400002,,2013-02-20 19:52:00,
2013-02-20 12:00:00,29.0,28.0,-100.00,NW,313,1.0,1.0,95,-99.99,,,0.00,129.000000,,2013-02-20 20:00:00,
2013-02-20 12:51:00,29.0,28.0,-100.00,NW,313,1.0,1.0,95,-99.99,,,0.00,129.000000,,2013-02-20 20:51:00,
2013-02-20 13:00:00,30.0,29.0,-100.00,SW,215,1.0,2.0,97,-99.99,,,0.01,71.000000,,2013-02-20 21:00:00,
2013-02-20 13:52:00,30.0,29.0,-100.00,SW,215,1.0,2.0,97,-99.99,,,0.01,71.000000,,2013-02-20 21:52:00,
2013-02-20 14:00:00,30.0,28.0,-100.00,SSW,197,1.0,3.0,95,-99.99,,,0.01,126.400002,,2013-02-20 22:00:00,
2013-02-20 14:52:00,30.0,28.0,-100.00,SSW,197,1.0,3.0,95,-99.99,,,0.01,126.400002,,2013-02-20 22:52:00,
2013-02-20 15:00:00,30.0,29.0,-100.00,SSE,165,1.0,3.0,94,-99.99,,,0.00,101.800003,,2013-02-20 23:00:00,
2013-02-20 15:52:00,30.0,29.0,-100.00,SSE,165,1.0,3.0,94,-99.99,,,0.00,101.800003,,2013-02-20 23:52:00,
2013-02-20 16:00:00,29.0,28.0,-100.00,SSW,209,1.0,2.0,95,-99.99,,,0.00,67.500000,,2013-02-21 00:00:00,
2013-02-20 16:52:00,29.0,28.0,-100.00,SSW,209,1.0,2.0,95,-99.99,,,0.00,67.500000,,2013-02-21 00:52:00,
2013-02-20 17:00:00,29.0,28.0,-100.00,South,171,1.0,3.0,98,-99.99,,,0.01,22.600000,,2013-02-21 01:00:00,
2013-02-20 17:52:00,29.0,28.0,-100.00,South,171,1.0,3.0,98,-99.99,,,0.01,22.600000,,2013-02-21 01:52:00,
2013-02-20 18:00:00,28.0,28.0,-100.00,South,169,1.0,2.0,100,-99.99,,,0.00,2.900000,,2013-02-21 02:00:00,
2013-02-20 19:00:00,28.0,28.0,-100.00,SSW,210,1.0,2.0,100,-99.99,,,0.01,-0.200000,,2013-02-21 03:00:00,
2013-02-20 19:52:00,28.0,28.0,-100.00,SSW,210,1.0,2.0,100,-99.99,,,0.01,-0.200000,,2013-02-21 03:52:00,
2013-02-20 20:00:00,28.0,28.0,-100.00,SSW,201,1.0,3.0,100,-99.99,,,0.00,-0.200000,,2013-02-21 04:00:00,
2013-02-20 20:52:00,28.0,28.0,-100.00,SSW,201,1.0,3.0,100,-99.99,,,0.00,-0.200000,,2013-02-21 04:52:00,
2013-02-20 21:00:00,28.0,28.0,-100.00,SSW,198,1.0,2.0,100,-99.99,,,0.00,-0.200000,,2013-02-21 05:00:00,
2013-02-20 21:59:00,28.0,28.0,-100.00,SSW,198,1.0,2.0,100,-99.99,,,0.00,-0.200000,,2013-02-21 05:59:00,
2013-02-20 22:00:00,28.0,28.0,-100.00,NW,307,0.0,1.0,100,-99.99,,,0.00,-0.200000,,2013-02-21 06:00:00,
2013-02-20 22:51:00,28.0,28.0,-100.00,NW,307,0.0,1.0,100,-99.99,,,0.00,-0.200000,,2013-02-21 06:51:00,
2013-02-20 23:00:00,28.0,28.0,-100.00,SSE,168,0.0,1.0,100,-99.99,,,0.00,-0.200000,,2013-02-21 07:00:00,
2013-02-20 23:52:00,28.0,28.0,-100.00,SSE,168,0.0,1.0,100,-99.99,,,0.00,-0.200000,,2013-02-21 07:52:00,